Kindakun Rocks, British Columbia

5:08 AM PDT on September 26, 2017 (GMT -0700)
Kindakun Rocks

Weather History for CWQS - December, 2012

Change the Weather History Date:

Sunday, December 9, 2012

  Actual Average (CYZP) Record (CYZP)
Temperature  
Mean Temperature 42 °F -  
Max Temperature 46 °F 42 °F 52 °F (2014)
Min Temperature 38 °F 35 °F 32 °F (1996)
Degree Days  
Heating Degree Days 23    
Moisture  
Dew Point 42 °F    
Average Humidity 85    
Maximum Humidity 94    
Minimum Humidity 66    
Precipitation  
Precipitation 0.12 in - - ()
Sea Level Pressure  
Sea Level Pressure 30.11 in    
Wind  
Wind Speed 22 mph ()    
Max Wind Speed 45 mph    
Max Gust Speed 58 mph    
Averages and records for this station are not official NWS values.
T = Trace of Precipitation, MM = Missing Value Source: Averaged Metar Reports

Daily Weather History Graph

Daily Weather History Graph

Search for Another Location

Airport or City:

Trip Planner

Search our weather history database for the weather conditions in past years. The results will help you decide how hot, cold, wet, or windy it might be!

Date:

Astronomy

Dec. 09, 2012 Rise Set
Actual Time 8:54 AM PST 4:32 PM PST
Civil Twilight 8:12 AM PST 5:15 PM PST
Nautical Twilight 7:27 AM PST 6:00 PM PST
Astronomical Twilight 6:44 AM PST 6:42 PM PST
Moon 4:09 AM PST (12/9) 2:07 PM PST (12/9)
Length of Visible Light 9h 02m
Length of Day
7h 38m
Waning Crescent, 17% of the Moon is Illuminated
Dec 9
Waning Crescent
Dec 13
New
Dec 19
First Quarter
Dec 28
Full
Jan 4
Last Quarter

Hourly Weather History & Observations

Time (PST) Temp. Windchill Dew Point Humidity Pressure Visibility Wind Dir Wind Speed Gust Speed Precip Events Conditions
12:00 AM 45.9 °F 34.6 °F 41.0 °F 83% 29.85 in - South 44.9 mph 57.5 mph N/A   Unknown
1:00 AM 46 °F - 43 °F 84% 29.87 in - South 39.1 mph - -  
1:00 AM 45.9 °F 35.2 °F 42.6 °F 88% 29.87 in - South 39.1 mph 48.3 mph 0.05 in   Unknown
2:00 AM 45.7 °F 35.7 °F 43.7 °F 93% 29.90 in - South 33.4 mph 41.4 mph 0.02 in   Unknown
3:00 AM 46.0 °F 38.5 °F 44.2 °F 93% 29.93 in - South 19.6 mph - N/A   Unknown
4:00 AM 47 °F - 45 °F 90% 29.95 in - WNW 15.0 mph - -  
4:00 AM 46.6 °F - 45.0 °F 94% 29.95 in - WNW 15.0 mph - 0.02 in   Unknown
5:00 AM 46.0 °F 38.0 °F 44.4 °F 94% 29.97 in - NW 21.9 mph - 0.01 in   Unknown
6:00 AM 46.0 °F 38.0 °F 43.0 °F 89% 30.01 in - NNW 21.9 mph - 0.01 in   Unknown
7:00 AM 46 °F - 42 °F 81% 30.04 in - NNW 20.7 mph - -  
7:00 AM 46.0 °F 38.3 °F 42.1 °F 86% 30.04 in - NNW 20.7 mph - N/A   Unknown
8:00 AM 46.2 °F 38.3 °F 40.8 °F 81% 30.08 in - NNW 21.9 mph - N/A   Unknown
9:00 AM 46.2 °F 37.7 °F 40.3 °F 80% 30.12 in - NW 25.3 mph - N/A   Unknown
10:00 AM 46 °F - 38 °F 66% 30.14 in - NW 23.0 mph - -  
10:00 AM 46.4 °F 38.3 °F 38.3 °F 73% 30.14 in - NW 23.0 mph - N/A   Unknown
11:00 AM 46.2 °F 38.7 °F 39.7 °F 78% 30.18 in - NW 19.6 mph - N/A   Unknown
12:00 PM 46.2 °F 38.5 °F 39.6 °F 78% 30.23 in - NW 20.7 mph - N/A   Unknown
1:00 PM 46 °F - 40 °F 72% 30.21 in - WNW 11.5 mph - -  
1:00 PM 46.4 °F 41.1 °F 39.7 °F 78% 30.21 in - WNW 11.5 mph - N/A   Unknown
2:00 PM 45.9 °F 40.0 °F 39.9 °F 80% 30.23 in - West 12.7 mph - N/A   Unknown
3:00 PM 45.7 °F 39.8 °F 41.0 °F 84% 30.22 in - WSW 12.7 mph - N/A   Unknown
4:00 PM 46 °F - 42 °F 83% 30.22 in - SW 12.7 mph - -  
4:00 PM 46.0 °F 40.2 °F 42.4 °F 87% 30.22 in - SW 12.7 mph - N/A   Unknown
5:00 PM 46.6 °F - 42.8 °F 87% 30.22 in - West 15.0 mph - N/A   Unknown
6:00 PM 46.6 °F - 43.0 °F 87% 30.23 in - West 15.0 mph - N/A   Unknown
7:00 PM 47 °F - 43 °F 82% 30.22 in - West 11.5 mph - -  
7:00 PM 46.6 °F - 43.2 °F 88% 30.22 in - West 11.5 mph - 0.01 in   Unknown
9:00 PM 46.2 °F 40.8 °F 43.7 °F 91% 30.22 in - West 11.5 mph - 0.05 in   Unknown
10:00 PM 46 °F - 44 °F 89% 30.22 in - West 13.8 mph - -  
10:00 PM 46.2 °F 40.1 °F 43.9 °F 92% 30.22 in - West 13.8 mph - 0.06 in   Unknown
11:00 PM 46.2 °F 40.1 °F 44.1 °F 92% 30.23 in - West 13.8 mph 21.9 mph 0.09 in   Unknown